Theta_e
313 316 310 318 317 313 318 319 320 323 325 335 343 344 344 343 346 347 337 338 344 350 350 344 345 340 335 321 320 320 320 321 322 329 329 327 328 329 327 326 323 322 323 323 323 323 324 325 327
313 314 316 317 310 315 312 316 320 321 324 324 333 344 342 342 341 339 337 338 344 344 350 344 345 341 337 327 320 320 320 321 322 324 325 328 329 328 326 326 324 322 322 323 323 324 326 327 328
311 315 320 311 309 309 310 315 317 321 320 323 343 347 344 344 340 340 338 338 335 345 350 345 345 341 339 331 323 320 320 321 323 325 326 327 327 325 325 326 324 322 323 324 326 327 327 327 323
317 317 319 314 311 309 312 314 314 315 317 319 322 329 350 351 345 340 339 340 345 349 347 346 345 342 340 333 329 322 321 321 321 322 324 323 323 325 327 324 322 323 325 327 327 326 323 321 322
318 318 314 314 314 311 311 313 314 313 315 317 318 318 346 346 348 340 338 340 342 350 351 347 345 342 341 335 333 328 323 322 321 321 322 322 323 325 326 322 323 325 327 326 324 321 321 322 333
319 316 314 314 314 313 312 316 314 314 316 317 319 327 338 345 345 344 339 339 352 353 351 346 345 343 341 337 334 332 329 324 322 322 322 322 323 324 322 323 325 327 326 323 321 321 324 331 341
314 313 316 315 317 317 317 318 317 315 316 319 320 345 354 352 346 346 342 345 352 351 350 346 344 344 342 338 334 334 333 327 322 322 322 322 322 322 323 325 326 324 321 321 323 331 341 342 340
316 310 315 316 318 317 317 317 319 318 318 318 320 342 354 352 344 347 345 350 351 350 349 348 344 343 342 339 334 335 334 330 322 323 322 322 323 323 325 325 323 321 321 332 340 342 344 343 343
314 309 311 313 316 316 316 314 317 318 317 318 319 326 336 352 345 344 346 353 352 349 347 346 343 341 341 340 335 335 334 331 322 323 323 324 324 325 324 322 321 322 329 338 342 343 344 345 345
309 307 310 310 313 313 314 315 315 316 316 317 318 342 348 351 345 348 351 353 351 347 346 342 337 334 337 340 335 335 334 330 322 323 323 324 323 322 322 323 324 330 335 341 343 344 344 344 343
309 309 309 311 313 314 313 314 315 316 314 317 318 319 352 354 353 351 354 355 352 347 342 337 334 333 337 340 335 335 333 328 322 323 323 323 322 322 328 335 335 339 343 341 342 342 344 343 344
311 312 311 311 313 312 311 313 313 315 315 316 317 318 320 337 351 354 356 354 350 345 338 335 333 331 337 339 336 334 331 326 322 323 323 323 323 327 337 338 338 338 340 341 342 340 341 345 346
311 312 314 314 314 314 313 310 312 312 314 315 317 318 320 320 323 347 352 353 349 345 338 334 332 331 335 337 334 333 329 324 321 323 323 330 330 332 337 339 340 337 341 339 342 342 340 343 340
314 313 313 314 313 313 310 310 312 313 314 315 316 318 319 320 321 329 348 349 349 345 339 334 331 330 333 334 334 330 326 322 322 324 327 335 336 336 338 338 338 337 335 335 335 334 340 338 334
314 312 311 312 312 312 313 313 312 313 314 314 315 316 318 319 325 335 346 343 347 343 339 334 330 328 329 330 330 327 323 321 322 331 335 338 337 339 340 339 337 335 335 334 338 341 343 334 337
311 311 312 311 314 315 313 313 313 316 316 314 314 316 317 318 322 333 339 344 345 342 338 333 329 327 327 327 327 324 321 321 322 325 337 336 339 338 341 339 337 335 336 337 343 343 338 334 336
309 312 313 314 315 315 315 315 315 316 316 315 315 315 316 319 327 334 336 345 344 343 338 333 329 326 325 323 323 321 320 322 325 331 335 336 340 339 340 338 336 336 341 344 344 343 341 336 336
312 312 312 314 313 313 314 315 314 316 315 315 315 314 314 316 321 333 338 343 344 342 343 334 329 327 325 321 321 320 322 333 340 342 342 339 343 342 339 336 336 342 346 346 344 344 340 336 334
312 313 314 314 312 315 315 314 315 314 314 314 315 314 313 315 318 328 336 339 345 342 342 335 331 330 332 321 321 324 339 341 342 343 343 342 344 342 338 338 342 344 345 345 343 339 337 333 328
312 313 314 313 313 314 315 315 313 313 314 314 314 315 315 314 317 327 335 335 344 344 343 339 336 336 338 325 333 340 341 341 342 343 343 344 341 339 340 339 344 344 345 339 332 333 334 326 324
314 314 314 313 313 312 313 313 313 314 314 314 314 315 316 314 317 322 329 343 344 342 342 340 339 337 339 336 340 340 341 344 344 344 344 342 343 344 343 347 346 345 338 333 330 333 333 323 322
315 313 314 314 313 313 314 314 312 312 312 312 313 314 316 315 318 320 326 336 344 342 341 341 340 339 339 339 343 342 345 346 343 345 343 342 345 344 348 347 344 336 333 325 325 324 322 318 312
316 314 314 315 313 310 311 313 312 310 312 312 312 314 315 315 318 319 325 334 331 331 343 343 341 341 340 339 345 343 345 343 344 344 343 346 346 346 346 344 334 333 324 321 320 318 316 311 310
317 315 313 307 307 310 309 311 311 310 310 310 311 313 316 317 318 320 321 337 340 342 342 344 343 341 343 343 345 344 344 344 344 344 345 345 344 344 341 334 333 325 322 319 316 312 309 310 313
314 313 315 314 309 312 311 313 312 311 313 312 311 312 314 315 317 323 331 335 343 343 338 335 331 342 344 341 343 344 344 345 344 343 342 343 344 341 335 333 327 322 318 314 310 309 310 313 313
315 314 315 315 313 314 314 314 313 313 315 316 317 317 317 314 316 323 323 331 335 339 333 326 329 334 336 329 340 344 346 346 344 343 342 343 341 336 333 330 322 317 311 307 308 310 313 314 311
316 315 314 316 314 315 313 313 314 315 316 316 316 316 315 318 316 324 323 325 339 335 330 329 336 342 334 331 340 345 347 347 345 343 343 342 340 334 331 324 317 311 307 309 311 312 314 313 310
315 314 315 313 316 315 317 318 316 316 317 317 316 315 315 316 322 333 327 329 341 340 335 333 333 335 334 334 341 346 347 347 344 342 344 343 339 332 328 319 311 307 309 311 312 313 314 310 312
314 313 312 311 314 314 318 317 316 316 318 317 316 315 315 316 326 330 334 336 340 342 339 336 335 333 336 343 344 346 345 344 343 343 344 340 333 330 321 312 307 308 311 313 314 310 309 312 312
314 314 311 312 315 315 315 315 315 316 319 317 315 315 314 314 319 326 337 337 339 343 339 333 337 336 334 329 335 344 344 343 343 344 340 332 329 322 312 307 309 311 312 314 314 310 312 312 313
Wind_Speed
5 4 3 6 3 4 4 7 3 4 3 4 16 7 14 13 8 6 16 20 22 28 34 31 29 25 21 21 23 24 25 24 24 24 23 21 19 16 14 13 12 11 10 10 9 8 7 6 5
1 5 5 4 5 2 6 5 10 3 7 20 9 8 7 6 9 7 16 30 25 29 36 34 33 30 24 22 23 23 24 25 26 25 24 22 19 16 13 12 11 10 9 8 8 7 6 6 5
1 8 5 4 4 7 6 5 1 3 9 12 5 4 8 5 15 21 19 34 21 30 42 38 36 33 28 25 24 25 25 25 26 25 24 22 19 15 12 11 10 9 9 8 7 7 5 5 6
4 5 3 4 8 6 5 1 4 5 8 10 14 6 5 10 8 23 30 39 33 46 46 42 39 36 32 28 26 26 26 25 25 24 23 21 18 16 13 10 9 9 9 7 6 5 5 5 6
4 2 1 2 5 5 4 8 6 5 6 11 16 11 9 14 14 22 33 37 35 49 48 45 42 38 34 31 28 26 26 25 24 24 22 20 18 16 13 11 10 9 7 6 5 5 5 7 9
3 2 2 5 5 5 5 10 1 5 9 15 6 18 9 18 16 21 31 32 37 47 50 46 43 40 36 32 30 28 26 24 24 23 21 20 18 16 14 12 10 8 6 5 5 6 7 9 10
5 4 3 3 3 5 4 4 1 5 8 9 22 6 5 12 19 23 36 30 40 47 47 45 43 40 37 34 31 28 26 24 23 22 21 19 17 15 14 12 9 7 5 6 7 8 10 9 7
2 4 3 3 2 4 5 15 14 6 14 19 15 4 8 22 23 31 31 35 45 48 48 46 44 42 39 36 32 29 26 24 23 22 20 18 17 15 13 11 8 6 8 9 9 9 8 7 8
3 3 4 4 2 5 16 7 9 13 10 25 14 34 34 25 31 36 37 43 48 46 47 47 46 43 40 37 33 29 26 24 23 21 20 19 17 14 12 10 8 8 10 9 7 6 5 6 7
3 3 5 7 4 7 22 9 24 11 16 20 25 28 17 37 39 40 46 49 51 50 49 48 47 45 43 39 36 32 29 26 25 23 20 19 17 14 13 11 9 9 10 7 5 5 4 5 4
1 5 7 10 24 23 21 16 25 11 6 11 19 20 2 16 39 45 49 54 59 54 51 49 47 45 44 42 39 34 30 26 24 22 20 19 18 17 15 13 10 9 8 5 3 3 5 3 4
3 10 9 10 19 17 9 18 17 13 19 22 18 17 14 16 14 25 49 50 53 55 52 50 47 44 44 42 39 35 30 26 24 22 21 19 19 18 15 11 9 7 7 4 2 1 3 6 8
4 3 16 21 22 22 22 11 16 18 23 18 10 12 13 17 23 27 26 45 51 55 53 50 46 45 45 42 39 34 29 26 24 22 20 18 17 15 13 8 8 6 6 3 2 4 8 7 5
9 12 17 17 18 14 8 9 8 12 17 12 10 10 10 15 27 35 26 31 50 53 51 48 45 45 43 40 37 33 28 25 24 22 20 18 14 12 9 7 6 5 4 4 5 8 6 4 5
9 7 7 2 7 5 20 16 12 9 19 13 13 11 10 13 21 33 30 25 50 52 51 48 45 42 40 38 35 30 27 25 24 22 18 15 12 9 6 7 5 6 6 5 6 4 4 4 2
5 3 4 6 6 5 6 16 10 16 27 19 13 8 9 15 17 32 43 24 35 43 51 48 44 41 38 36 32 28 26 25 23 21 16 12 11 7 7 7 7 7 6 6 7 4 5 5 2
4 5 4 5 4 2 4 15 14 26 23 19 19 16 9 10 9 31 27 26 38 44 45 45 43 39 36 32 30 28 27 25 21 20 16 14 10 10 10 10 10 10 6 7 7 6 6 6 4
7 6 6 6 5 4 6 19 17 16 20 24 21 22 12 12 10 30 34 35 38 40 41 43 41 36 32 31 30 28 26 25 23 19 16 16 14 11 12 13 12 9 7 8 9 10 6 4 1
7 9 15 13 9 3 13 14 16 18 21 25 19 24 18 16 12 20 43 34 33 41 39 41 40 36 32 35 34 32 29 27 24 20 19 17 13 12 12 14 11 8 9 9 10 8 4 4 13
11 13 14 12 10 7 9 15 18 17 14 27 18 25 20 19 15 24 32 40 42 48 42 42 41 38 33 35 33 32 28 24 22 22 22 18 14 11 10 13 12 9 10 10 6 4 7 13 19
7 10 13 14 10 5 8 12 10 18 18 28 16 23 21 24 20 25 32 44 48 46 45 44 42 38 34 34 33 31 27 24 24 23 24 19 15 11 10 10 9 9 9 4 4 6 7 10 17
12 9 16 12 6 7 6 13 16 10 18 16 13 18 22 20 21 18 30 32 39 40 46 44 42 40 37 35 34 35 33 29 27 27 23 19 14 12 11 11 9 8 5 4 5 5 6 5 5
8 11 10 7 6 3 1 1 18 5 18 18 7 18 20 18 24 23 25 39 33 28 48 48 46 41 39 36 36 38 35 28 28 26 22 19 15 13 12 10 9 7 5 5 5 5 4 4 4
13 4 4 4 2 5 5 6 19 7 7 6 6 7 11 14 26 25 24 38 44 47 59 45 44 44 40 34 39 38 33 33 30 27 23 18 15 14 12 11 10 8 6 6 6 6 5 5 6
2 4 2 3 2 6 4 7 9 15 12 11 14 17 17 16 24 29 30 38 48 55 51 45 41 43 43 14 29 37 34 31 30 27 21 18 16 15 13 11 9 7 7 7 7 8 8 8 7
10 6 4 5 3 3 6 7 5 4 8 18 20 21 21 17 19 30 30 32 47 57 50 40 43 41 44 24 36 36 33 32 28 22 19 16 15 14 14 12 10 9 8 8 9 10 11 9 8
1 4 3 3 3 1 4 7 8 4 10 15 21 24 21 25 20 29 31 32 40 47 48 43 48 45 36 56 40 35 37 30 26 24 21 17 16 16 15 13 11 10 10 10 11 11 11 9 8
5 5 3 2 3 4 4 5 7 7 12 15 19 22 32 29 22 26 34 36 40 47 44 39 36 41 41 48 32 38 32 28 28 23 21 20 18 17 15 14 13 12 12 13 12 12 12 10 10
1 1 1 4 3 3 3 4 3 3 3 10 16 25 31 37 38 22 37 39 39 43 42 40 34 24 46 41 39 36 34 29 27 25 24 20 19 19 16 15 14 14 16 14 14 14 12 11 9
7 4 6 3 2 4 2 7 3 2 4 7 19 28 38 40 44 25 34 38 40 40 43 49 38 38 49 46 41 39 34 32 29 29 23 21 21 19 18 16 16 16 16 16 14 14 12 9 6
Wind_Direction
275 248 197 156 78 64 242 244 233 243 357 15 131 153 183 163 166 218 163 208 167 176 184 183 185 186 185 176 176 176 174 173 171 169 168 165 165 163 159 153 146 140 135 128 119 110 104 100 86
258 185 163 139 113 157 251 229 231 171 296 313 272 203 163 195 207 195 180 169 178 185 186 185 185 186 184 180 176 175 173 171 170 167 167 168 168 166 162 156 150 141 134 122 113 105 97 88 70
169 165 159 136 163 200 223 206 117 348 343 321 333 233 170 196 198 183 171 155 160 200 187 187 185 186 184 182 177 176 175 173 171 171 171 173 173 174 166 159 153 141 130 117 107 98 83 69 61
157 150 114 124 225 263 225 102 44 1 336 340 331 296 259 256 209 199 186 180 186 190 186 186 186 188 185 183 179 178 176 175 174 176 178 179 178 175 166 162 152 141 123 114 99 80 69 67 69
158 132 102 242 249 265 264 297 345 304 277 291 299 272 246 239 216 192 193 208 204 189 184 185 186 187 187 185 182 180 177 178 177 180 181 181 180 178 167 162 150 136 121 108 87 73 64 64 71
112 81 59 245 253 271 301 298 356 264 291 319 333 287 239 239 215 218 204 202 194 187 182 184 185 188 189 187 185 182 179 179 180 181 183 183 179 174 165 158 148 137 127 98 80 70 62 71 67
117 93 221 252 263 323 280 356 63 328 350 316 321 267 259 220 215 214 200 195 187 184 185 184 186 188 189 189 188 185 182 181 182 182 181 181 177 169 160 152 148 141 116 96 83 77 75 75 53
114 92 309 269 256 266 272 344 312 357 313 327 328 282 258 213 197 195 196 190 183 187 187 187 188 188 189 189 189 188 186 185 184 182 179 176 171 163 156 153 151 137 110 98 99 87 83 57 56
153 62 235 249 275 279 295 334 297 319 311 318 313 312 267 210 187 191 192 191 187 191 190 189 189 190 190 188 189 189 190 188 186 183 178 173 168 163 156 152 143 131 116 111 107 79 98 76 39
124 142 234 205 224 269 284 272 294 297 307 299 327 357 186 202 190 184 189 193 192 192 193 192 191 191 189 189 189 190 191 191 187 185 178 172 167 160 157 148 143 126 127 112 97 70 70 55 55
200 214 236 259 271 277 278 283 281 272 261 279 308 333 243 183 188 189 195 197 194 193 193 193 193 192 190 190 191 191 193 193 189 186 178 174 168 164 151 143 129 128 133 123 124 92 75 58 348
297 262 265 307 313 311 284 288 279 257 266 289 292 304 299 275 228 206 194 198 196 194 195 194 194 193 192 193 193 194 193 193 190 185 182 178 172 168 156 151 153 155 176 171 175 29 334 337 323
211 329 314 307 306 303 297 274 270 269 277 277 284 301 281 287 274 242 235 203 199 196 196 196 195 194 194 193 196 195 194 194 189 186 185 175 170 170 161 159 161 145 164 212 254 313 326 310 332
306 295 297 313 304 299 277 274 289 287 297 282 287 281 267 293 294 240 238 220 203 200 198 198 197 196 195 196 197 195 195 193 189 189 186 184 178 175 175 174 155 201 194 241 288 301 296 304 327
281 300 314 301 326 305 335 299 236 304 303 298 300 293 287 293 300 229 227 245 215 202 198 199 197 196 197 197 197 197 194 191 190 188 186 181 182 176 192 181 190 210 224 260 301 282 288 349 48
343 20 1 300 355 335 24 280 317 356 334 322 301 257 267 294 280 236 227 266 232 208 198 199 196 197 197 198 195 194 192 191 193 190 183 186 191 188 198 212 229 228 239 274 291 269 280 297 354
339 269 275 311 286 249 84 285 292 326 323 314 304 286 262 271 275 206 220 247 231 212 203 200 197 196 197 196 193 191 189 189 187 186 189 189 186 202 217 226 228 240 240 273 284 267 288 277 319
269 284 269 275 278 304 260 269 290 315 312 306 310 295 257 255 227 215 212 243 220 218 207 202 200 196 194 192 189 187 185 179 175 178 179 186 198 216 224 230 221 233 251 277 274 284 276 272 69
260 268 268 272 272 233 272 275 298 306 300 295 302 293 259 247 237 221 219 228 222 218 205 199 199 190 186 185 185 182 179 183 187 187 192 195 208 226 223 207 212 241 269 275 276 275 224 146 144
245 247 257 268 255 183 259 277 287 284 273 278 281 278 269 250 204 192 209 211 224 217 204 196 195 187 184 184 180 180 183 192 195 196 196 200 211 212 209 216 235 254 259 274 268 202 174 157 157
242 243 261 269 284 262 259 274 279 286 288 277 270 274 273 249 210 204 197 200 208 206 201 196 193 187 189 186 185 187 191 188 193 193 190 198 204 213 212 220 229 242 260 242 208 183 191 175 185
260 228 252 268 280 278 151 286 280 287 277 271 259 264 274 237 211 201 206 194 201 208 201 201 191 190 193 193 196 190 184 185 188 189 192 198 204 212 221 232 244 243 210 210 201 205 191 197 187
261 261 263 277 278 303 215 305 276 304 287 280 251 247 257 239 217 200 208 194 189 186 214 206 195 190 193 200 202 192 191 192 192 189 192 197 206 218 222 233 231 206 203 198 190 201 195 201 194
252 304 338 30 43 262 223 227 285 250 254 287 279 276 252 254 210 212 214 202 199 203 199 199 196 194 186 191 203 201 200 195 196 192 195 200 210 214 214 213 207 200 195 191 192 188 185 175 158
76 69 332 320 359 250 207 305 257 290 309 296 290 299 284 277 222 207 199 200 196 187 191 203 207 195 178 171 199 214 207 201 201 195 202 209 213 205 204 202 199 198 192 185 181 171 159 151 142
298 175 183 220 208 274 293 265 261 231 349 351 353 360 17 297 256 218 205 208 201 200 206 209 192 187 187 192 214 217 213 202 199 207 212 215 207 202 199 199 195 192 183 174 171 161 155 145 146
193 171 215 9 297 195 242 285 287 301 354 354 349 352 358 351 274 230 211 217 207 200 201 210 195 189 177 192 205 213 205 200 205 207 202 210 204 203 197 193 191 184 175 164 164 163 154 155 151
189 148 65 77 239 260 263 269 244 352 344 344 342 342 341 339 323 239 218 214 205 207 199 204 201 196 200 189 206 207 195 201 206 203 210 207 206 200 196 188 190 181 173 163 161 155 161 161 146
170 186 164 172 198 214 287 256 353 321 329 329 324 327 335 332 330 238 220 209 201 205 203 193 190 172 185 189 197 199 193 195 200 205 204 200 200 194 189 188 187 179 168 162 162 152 159 159 150
241 284 179 158 269 261 257 264 238 95 338 336 323 328 326 323 325 231 218 205 192 186 193 188 192 189 186 188 193 202 195 195 198 198 191 196 191 184 189 185 179 173 167 162 163 161 163 153 152